CW0315 Weather Reports


time (UTC)temp
C
wind
direction
speed
KPH
gust
KPH
rain 1hr
cm
rain 24hr
cm
rain mn
cm
humidity
%
barometer
mb
20260506100310 16 0 0.0 9.7 0.00 0.15 0.00 59 1004.4
20260506095310 16 202 3.2 14.5 0.00 0.15 0.00 63 1004.3
20260506094310 17 90 0.0 4.8 0.00 0.15 0.00 60 1004.5
20260506093310 17 360 0.0 6.4 0.00 0.15 0.00 59 1004.5
20260506092310 15 202 1.6 9.7 0.00 0.15 0.00 64 1004.3
20260506091309 15 0 0.0 8.0 0.00 0.15 0.00 66 1004.4
20260506090309 16 180 3.2 9.7 0.00 0.15 0.00 66 1004.6
20260506085309 14 180 0.0 9.7 0.00 0.15 0.00 72 1004.3
20260506084309 14 135 1.6 14.5 0.00 0.15 0.00 70 1004.2
20260506082309 14 292 4.8 9.7 0.00 0.15 0.00 67 1004.4
20260506081314 13 180 3.2 9.7 0.00 0.15 0.00 70 1004.1
20260506080314 14 0 0.0 4.8 0.00 0.15 0.00 69 1004.9
20260506073313 11 0 0.0 6.4 0.00 0.15 0.00 83 1004.7
20260506072313 12 202 1.6 4.8 0.00 0.15 0.00 83 1004.9
20260506071313 11 202 3.2 9.7 0.00 0.15 0.00 83 1004.6
20260506070313 11 0 0.0 6.4 0.00 0.15 0.00 85 1004.8
20260506062315 12 180 1.6 6.4 0.00 0.15 0.00 86 1005.2
20260506061312 12 0 0.0 0.0 0.00 0.15 0.00 85 1005.1
20260506060312 10 0 0.0 0.0 0.00 0.15 0.00 90 1004.7
20260506051312 10 0 0.0 0.0 0.00 0.15 0.00 94 1005.2
20260506050311 10 0 0.0 0.0 0.00 0.15 0.00 95 1005.3
20260506044311 10 202 4.8 8.0 0.00 0.15 0.00 96 1005.5
20260506043311 10 180 0.0 3.2 0.00 0.15 0.00 96 1005.8
20260506042311 10 0 0.0 0.0 0.00 0.15 0.00 96 1005.6
20260506041311 10 0 0.0 4.8 0.00 0.15 0.00 96 1006.0
20260506040310 10 0 0.0 0.0 0.00 0.15 0.00 96 1005.9
20260506035310 10 157 3.2 3.2 0.00 0.15 0.00 96 1006.1
20260506034310 10 0 0.0 0.0 0.00 0.15 0.00 96 1005.8
20260506033310 10 0 0.0 0.0 0.00 0.15 0.00 96 1005.5
20260506032310 10 0 0.0 0.0 0.00 0.15 0.00 96 1005.7
20260506030310 10 0 0.0 6.4 0.00 0.15 0.00 96 1005.8
20260506025309 10 180 1.6 6.4 0.00 0.15 0.00 96 1005.8
20260506024309 10 0 0.0 8.0 0.00 0.15 0.00 96 1005.7
20260506023309 10 0 0.0 0.0 0.00 0.15 0.00 95 1005.7
20260506022309 10 0 0.0 0.0 0.00 0.15 0.00 96 1005.8
20260506021309 10 0 0.0 4.8 0.00 0.15 0.00 96 1005.8
20260506020309 10 0 0.0 0.0 0.00 0.15 0.00 95 1006.0
20260506015314 10 180 4.8 6.4 0.00 0.15 0.00 94 1005.8
20260506014314 10 0 0.0 0.0 0.00 0.15 0.00 94 1005.8
20260506013313 10 0 0.0 0.0 0.00 0.15 0.00 95 1005.7
20260506004313 11 225 1.6 8.0 0.00 0.15 0.00 93 1006.1
20260506003313 11 0 0.0 6.4 0.00 0.15 0.00 93 1006.3
20260506001312 11 0 0.0 0.0 0.00 0.15 0.00 92 1006.2
20260506000312 11 0 0.0 3.2 0.00 0.15 0.00 92 1006.2
20260505235312 11 292 1.6 9.7 0.00 0.15 0.00 92 1006.4
20260505234312 11 247 1.6 9.7 0.00 0.15 0.00 91 1006.4
20260505233312 11 315 1.6 6.4 0.00 0.15 0.00 90 1006.4
20260505231315 11 0 0.0 0.0 0.00 0.15 0.00 90 1006.2
20260505230312 11 0 0.0 6.4 0.00 0.15 0.00 90 1006.2
20260505225311 11 0 0.0 4.8 0.00 0.15 0.00 90 1006.0
20260505223311 11 0 0.0 3.2 0.00 0.15 0.00 91 1005.6
20260505222311 11 315 1.6 4.8 0.00 0.15 0.00 93 1005.6
20260505221311 10 360 1.6 6.4 0.00 0.15 0.00 94 1005.0
20260505214310 11 360 4.8 8.0 0.00 0.15 0.15 93 1004.9
20260505213310 11 22 3.2 6.4 0.00 0.15 0.15 92 1004.7
20260505212310 11 22 4.8 6.4 0.00 0.15 0.15 92 1004.5
20260505211310 11 360 6.4 8.0 0.03 0.15 0.15 91 1004.5
20260505210310 11 45 6.4 11.3 0.05 0.15 0.15 91 1004.4
20260505205310 11 22 3.2 8.0 0.10 0.15 0.15 91 1004.4
20260505204310 11 45 8.0 12.9 0.15 0.15 0.15 90 1004.4
20260505203309 12 22 8.0 14.5 0.15 0.15 0.15 90 1004.3
20260505202309 12 45 8.0 11.3 0.15 0.15 0.15 90 1004.4
20260505201309 12 45 4.8 6.4 0.13 0.13 0.13 89 1004.5
20260505200309 12 0 0.0 0.0 0.08 0.08 0.08 86 1004.6
20260505195309 13 0 0.0 0.0 0.05 0.05 0.05 78 1004.8
20260505194314 13 0 0.0 0.0 0.00 0.00 0.00 75 1004.4
20260505193314 14 292 0.0 8.0 0.00 0.00 0.00 73 1004.3
20260505192314 14 202 9.7 14.5 0.00 0.00 0.00 74 1004.3
20260505191313 14 0 0.0 3.2 0.00 0.00 0.00 73 1004.3
20260505190313 15 180 1.6 12.9 0.00 0.00 0.00 71 1004.0
20260505185313 15 180 4.8 11.3 0.00 0.00 0.00 67 1004.2
20260505184313 15 180 1.6 14.5 0.00 0.00 0.00 64 1003.7
20260505181312 16 180 1.6 19.3 0.00 0.00 0.00 52 1002.2
20260505180313 16 0 0.0 0.0 0.00 0.00 0.00 53 1002.1
20260505175312 16 0 0.0 0.0 0.00 0.00 0.00 51 1001.9
20260505173312 18 0 0.0 0.0 0.00 0.00 0.00 45 1002.2
20260505172312 19 0 0.0 4.8 0.00 0.00 0.00 40 1002.1
20260505171312 19 157 0.0 9.7 0.00 0.00 0.00 40 1001.8
20260505170312 20 0 0.0 6.4 0.00 0.00 0.00 38 1001.9
20260505165311 20 270 1.6 4.8 0.00 0.00 0.00 36 1002.1
20260505163311 21 180 3.2 8.0 0.00 0.00 0.00 33 1002.3
20260505162311 21 180 3.2 9.7 0.00 0.00 0.00 32 1002.3
20260505153310 21 270 3.2 11.3 0.00 0.00 0.00 32 1002.7
20260505151310 22 202 11.3 20.9 0.00 0.00 0.00 27 1002.7
20260505150310 22 247 1.6 6.4 0.00 0.00 0.00 28 1002.7
20260505140309 22 202 4.8 11.3 0.00 0.00 0.00 30 1003.7
20260505124314 21 180 4.8 14.5 0.00 0.00 0.00 37 1004.6
20260505123313 22 292 3.2 14.5 0.00 0.00 0.00 41 1005.0
20260505122313 21 180 3.2 12.9 0.00 0.00 0.00 39 1005.0
20260505121313 21 202 1.6 11.3 0.00 0.00 0.00 39 1005.1
20260505115312 21 202 8.0 16.1 0.00 0.00 0.00 42 1004.9
20260505114312 21 180 4.8 9.7 0.00 0.00 0.00 43 1005.0
20260505113312 21 202 0.0 8.0 0.00 0.00 0.00 38 1005.2
20260505112312 21 180 1.6 11.3 0.00 0.00 0.00 40 1005.1
20260505110312 21 270 3.2 9.7 0.00 0.00 0.00 47 1005.7